Location: Amsterdam
(30.7274°N, 84.4357°W)
Time: 04:57:57
(UTC+00:00)

Courier 1B Rocket - Pass Details

Date: 07 February 2026
Orbit: 920 x 1201 km, 28.2° (Epoch: 5 March)

Event Time Altitude Azimuth Distance (km) Brightness Sun altitude
Rises 01:54:56 0° 194° (SSW) 3,671 8.2 -34.0°
Enters shadow 01:56:58 - 183° (S) 3,235 7.7 -34.4°
Reaches altitude 10° 02:00:28 10° 157° (SSE) 2,808 - -35.2°
Maximum altitude 02:01:43 11° 146° (SE) 2,789 - -35.5°
Drops below altitude 10° 02:02:59 10° 135° (SE) 2,848 - -35.7°
Sets 02:08:49 0° 99° (E) 3,898 - -37.0°
